• In Uzbekistan
  • List of Countries
  • For 7 days
  • Water Temperature
  • Satellite Maps
  • Weather Map
  • Weather Widgets
  • user-avatar
    Login

    Hourly Weather Pawezow

    Today, 16 July, Monday

    Time Temperature Precipitation Wind Pressure Humidity
    00:00 +16°C° 0.1 mm 2 mps 738 mmHg 94%
    01:00 +16°C° 0 mm 2 mps 738 mmHg 94%
    02:00 +16°C° 0 mm 2 mps 738 mmHg 95%
    03:00 +16°C° 0 mm 3 mps 738 mmHg 95%
    04:00 +16°C° 0 mm 3 mps 737 mmHg 95%
    05:00 +17°C° 0.1 mm 3 mps 737 mmHg 91%
    06:00 +18°C° 0.1 mm 4 mps 737 mmHg 88%
    07:00 +20°C° 0.1 mm 4 mps 738 mmHg 84%
    08:00 +21°C° 1.1 mm 5 mps 737 mmHg 81%
    09:00 +22°C° 1.1 mm 5 mps 737 mmHg 78%
    10:00 +23°C° 1.1 mm 5 mps 737 mmHg 75%
    11:00 +23°C° 1.2 mm 5 mps 736 mmHg 75%
    12:00 +23°C° 1.2 mm 5 mps 736 mmHg 74%
    13:00 +23°C° 1.2 mm 4 mps 736 mmHg 74%
    14:00 +23°C° 0.9 mm 4 mps 736 mmHg 75%
    15:00 +23°C° 0.9 mm 4 mps 735 mmHg 75%
    16:00 +23°C° 0.9 mm 4 mps 735 mmHg 76%
    17:00 +22°C° 0.6 mm 4 mps 735 mmHg 79%
    18:00 +21°C° 0.6 mm 3 mps 735 mmHg 83%
    19:00 +20°C° 0.6 mm 3 mps 735 mmHg 86%
    20:00 +19°C° 0.5 mm 3 mps 734 mmHg 88%
    21:00 +19°C° 0.5 mm 3 mps 734 mmHg 91%
    22:00 +18°C° 0.5 mm 3 mps 734 mmHg 94%
    23:00 +17°C° 0.2 mm 3 mps 734 mmHg 94%

    Tomorrow, 17 July, Tuesday

    Time Temperature Precipitation Wind Pressure Humidity
    00:00 +17°C° 0.2 mm 3 mps 734 mmHg 95%
    01:00 +17°C° 0.2 mm 3 mps 734 mmHg 95%
    02:00 +17°C° 0 mm 3 mps 734 mmHg 96%
    03:00 +16°C° 0 mm 3 mps 734 mmHg 96%
    04:00 +16°C° 0 mm 3 mps 733 mmHg 96%
    05:00 +17°C° 0 mm 4 mps 733 mmHg 94%
    06:00 +18°C° 0 mm 4 mps 733 mmHg 91%
    07:00 +19°C° 0 mm 5 mps 733 mmHg 89%
    08:00 +20°C° 0.2 mm 5 mps 733 mmHg 86%
    09:00 +20°C° 0.2 mm 5 mps 733 mmHg 84%
    10:00 +21°C° 0.2 mm 6 mps 734 mmHg 81%
    11:00 +22°C° 0.4 mm 6 mps 733 mmHg 81%
    12:00 +22°C° 0.4 mm 6 mps 733 mmHg 80%
    13:00 +22°C° 0.4 mm 5 mps 733 mmHg 79%
    14:00 +22°C° 0.5 mm 6 mps 733 mmHg 80%
    15:00 +22°C° 0.5 mm 6 mps 733 mmHg 80%
    16:00 +22°C° 0.5 mm 6 mps 733 mmHg 80%
    17:00 +21°C° 0.2 mm 6 mps 733 mmHg 83%
    18:00 +20°C° 0.2 mm 5 mps 733 mmHg 86%
    19:00 +19°C° 0.2 mm 5 mps 733 mmHg 89%
    20:00 +19°C° 0.1 mm 5 mps 733 mmHg 90%
    21:00 +17°C° 0.1 mm 5 mps 733 mmHg 92%
    22:00 +17°C° 0.1 mm 5 mps 733 mmHg 93%
    23:00 +17°C° 0.4 mm 5 mps 733 mmHg 94%

    Day after tomorrow, 18 July, Wednesday

    Time Temperature Precipitation Wind Pressure Humidity
    00:00 +17°C° 0.4 mm 5 mps 733 mmHg 95%
    01:00 +17°C° 0.4 mm 5 mps 733 mmHg 95%
    02:00 +17°C° 0.8 mm 5 mps 733 mmHg 95%
    03:00 +17°C° 0.8 mm 5 mps 732 mmHg 96%
    04:00 +17°C° 0.8 mm 5 mps 732 mmHg 96%
    05:00 +17°C° 1.1 mm 5 mps 732 mmHg 95%
    06:00 +17°C° 1.1 mm 5 mps 732 mmHg 95%
    07:00 +17°C° 1.1 mm 5 mps 732 mmHg 95%
    08:00 +17°C° 1.8 mm 5 mps 733 mmHg 95%
    09:00 +17°C° 1.8 mm 6 mps 733 mmHg 95%
    10:00 +17°C° 1.8 mm 6 mps 733 mmHg 94%
    11:00 +19°C° 0.9 mm 6 mps 733 mmHg 94%
    12:00 +19°C° 0.9 mm 6 mps 733 mmHg 93%
    13:00 +19°C° 0.9 mm 6 mps 733 mmHg 93%
    14:00 +19°C° 0.5 mm 6 mps 733 mmHg 92%
    15:00 +20°C° 0.5 mm 6 mps 733 mmHg 92%
    16:00 +20°C° 0.5 mm 6 mps 733 mmHg 91%
    17:00 +20°C° 0.6 mm 6 mps 733 mmHg 92%
    18:00 +20°C° 0.6 mm 5 mps 733 mmHg 93%
    19:00 +20°C° 0.6 mm 5 mps 733 mmHg 94%
    20:00 +20°C° 0.5 mm 5 mps 733 mmHg 94%
    21:00 +20°C° 0.5 mm 5 mps 733 mmHg 95%
    22:00 +19°C° 0.5 mm 5 mps 733 mmHg 95%
    23:00 +19°C° 0.5 mm 5 mps 733 mmHg 95%

    19 July, Thursday

    Time Temperature Precipitation Wind Pressure Humidity
    00:00 +19°C° 0.5 mm 5 mps 733 mmHg 96%
    01:00 +19°C° 0.5 mm 5 mps 733 mmHg 96%
    02:00 +19°C° 0.4 mm 5 mps 733 mmHg 96%
    03:00 +19°C° 0.4 mm 5 mps 733 mmHg 96%
    04:00 +19°C° 0.4 mm 5 mps 734 mmHg 96%
    05:00 +19°C° 1 mm 5 mps 734 mmHg 96%
    06:00 +19°C° 1 mm 4 mps 734 mmHg 96%
    07:00 +19°C° 1 mm 4 mps 734 mmHg 96%
    08:00 +19°C° 1 mm 4 mps 734 mmHg 95%
    09:00 +20°C° 1 mm 4 mps 735 mmHg 95%
    10:00 +20°C° 1 mm 4 mps 735 mmHg 94%
    11:00 +20°C° 0.5 mm 4 mps 735 mmHg 92%
    12:00 +21°C° 0.5 mm 5 mps 735 mmHg 90%
    13:00 +22°C° 0.5 mm 5 mps 735 mmHg 87%
    14:00 +22°C° 0.4 mm 5 mps 735 mmHg 87%
    15:00 +22°C° 0.4 mm 6 mps 736 mmHg 86%
    16:00 +22°C° 0.4 mm 6 mps 736 mmHg 86%
    17:00 +21°C° 0.1 mm 6 mps 736 mmHg 87%
    18:00 +20°C° 0.1 mm 5 mps 736 mmHg 89%
    19:00 +20°C° 0.1 mm 5 mps 736 mmHg 90%
    20:00 +19°C° 0 mm 5 mps 736 mmHg 91%
    21:00 +19°C° 0 mm 5 mps 736 mmHg 92%
    22:00 +19°C° 0 mm 5 mps 737 mmHg 93%
    23:00 +19°C° 0 mm 5 mps 737 mmHg 94%

    20 July, Friday

    Time Temperature Precipitation Wind Pressure Humidity
    00:00 +17°C° 0 mm 5 mps 737 mmHg 94%
    01:00 +17°C° 0 mm 5 mps 737 mmHg 95%
    02:00 +18°C° 0.1 mm 4 mps 737 mmHg 95%
    03:00 +18°C° 0.1 mm 4 mps 737 mmHg 94%
    04:00 +18°C° 0.1 mm 4 mps 737 mmHg 94%
    05:00 +19°C° 0 mm 4 mps 737 mmHg 93%
    06:00 +19°C° 0 mm 4 mps 737 mmHg 92%
    07:00 +19°C° 0 mm 4 mps 737 mmHg 91%
    08:00 +20°C° 0 mm 4 mps 737 mmHg 89%
    09:00 +20°C° 0 mm 4 mps 738 mmHg 87%
    10:00 +21°C° 0 mm 4 mps 738 mmHg 85%
    11:00 +21°C° 0.2 mm 4 mps 738 mmHg 82%
    12:00 +22°C° 0.2 mm 4 mps 738 mmHg 80%
    13:00 +22°C° 0.2 mm 5 mps 737 mmHg 78%
    14:00 +23°C° 0.2 mm 4 mps 737 mmHg 77%
    15:00 +23°C° 0.2 mm 4 mps 737 mmHg 76%
    16:00 +23°C° 0.2 mm 4 mps 737 mmHg 76%
    17:00 +22°C° 0.1 mm 3 mps 737 mmHg 79%
    18:00 +21°C° 0.1 mm 2 mps 737 mmHg 83%
    19:00 +21°C° 0.1 mm 2 mps 737 mmHg 86%
    20:00 +20°C° 0 mm 2 mps 737 mmHg 88%
    21:00 +19°C° 0 mm 2 mps 737 mmHg 90%
    22:00 +19°C° 0 mm 1 mps 737 mmHg 92%
    23:00 +17°C° 0 mm 2 mps 737 mmHg 93%

    21 July, Saturday

    Time Temperature Precipitation Wind Pressure Humidity
    00:00 +17°C° 0 mm 2 mps 737 mmHg 93%
    01:00 +16°C° 0 mm 2 mps 737 mmHg 94%
    02:00 +16°C° 0 mm 2 mps 737 mmHg 94%
    03:00 +16°C° 0 mm 2 mps 737 mmHg 94%
    04:00 +15°C° 0 mm 1 mps 737 mmHg 95%
    05:00 +17°C° 0 mm 2 mps 737 mmHg 90%
    06:00 +18°C° 0 mm 2 mps 737 mmHg 86%
    07:00 +20°C° 0 mm 2 mps 737 mmHg 82%
    08:00 +21°C° 0 mm 2 mps 737 mmHg 78%
    09:00 +24°C° 0 mm 2 mps 737 mmHg 73%
    10:00 +25°C° 0 mm 2 mps 737 mmHg 68%
    11:00 +26°C° 0.1 mm 2 mps 737 mmHg 65%
    12:00 +26°C° 0.1 mm 2 mps 736 mmHg 62%
    13:00 +27°C° 0.1 mm 2 mps 736 mmHg 59%
    14:00 +27°C° 0.1 mm 2 mps 736 mmHg 60%
    15:00 +27°C° 0.1 mm 2 mps 736 mmHg 62%
    16:00 +27°C° 0.1 mm 3 mps 736 mmHg 63%
    17:00 +25°C° 0.1 mm 2 mps 736 mmHg 69%
    18:00 +24°C° 0.1 mm 2 mps 736 mmHg 75%
    19:00 +21°C° 0.1 mm 2 mps 736 mmHg 81%
    20:00 +20°C° 0.1 mm 2 mps 736 mmHg 82%
    21:00 +19°C° 0.1 mm 2 mps 736 mmHg 84%
    22:00 +18°C° 0.1 mm 2 mps 736 mmHg 85%
    23:00 +19°C° 0 mm 1 mps 736 mmHg 84%
    Show more